User: anonymous   Login
Location: Mason Neck State Park
(38.6428°N, 77.1981°W)
Time: 13:42:27
(UTC-04:00)
Language:

Cosmos 1400 Rocket - Orbit

View from above orbital plane
View from above orbital plane
View from above satellite
View from above satellite

Ground track
Ground track

The orbit data is extracted from the following two-line orbital elements,

1 13403U 82079B   17144.21298731 +.00000020 +00000-0 -24690-6 0  9997
2 13403 081.1676 296.7971 0033902 359.8095 000.3109 15.06567361893114
Epoch (UTC): 24 May 2017 05:06:42
Eccentricity: 0.0033902
inclination: 81.1676°
perigee height: 523 km
apogee height: 570 km
right ascension of ascending node: 296.7971°
argument of perigee: 359.8095°
revolutions per day: 15.06567361
mean anomaly at epoch: 0.3109°
orbit number at epoch: 89311

The dashed part of the orbit path shows where the satellite is in the earth's shadow,  

DLR